Regional Weather Roundup
Issued by NWS State College, PA

Home | Current Version | Previous Version | Graphics & Text | Print | Product List | Glossary On
Versions: 1 2 3 4 5 6 7 8 9 10 11 12 13 14 15 16 17 18 19 20 21 22 23 24 25 26 27 28 29 30 31 32 33 34 35 36 37 38 39 40 41 42 43 44 45 46 47 48 49 50
000
ASUS41 KCTP 241003
RWRCTP

REGIONAL WEATHER ROUNDUP
NATIONAL WEATHER SERVICE STATE COLLEGE PA
600 AM EDT SUN JUL 24 2016

Note: "fair" indicates few or no clouds below 12,000 feet with no
significant weather and/or obstructions to visibility.

* = STATION THAT DOES NOT REPORT PRECIPITATION /E.G. RAIN...SNOW...ETC/
    THUNDER OR FOG.

PAZ002>004-007>009-013>016-020>023-029>032-241100-
WESTERN PENNSYLVANIA

CITY           SKY/WX    TMP DP  RH WIND       PRES   REMARKS
ERIE           CLEAR     65  61  87 S5        30.01R
MEADVILLE      CLEAR     63  58  83 CALM      30.04S
FRANKLIN*      CLEAR     59  55  88 E3        30.07S
NEW CASTLE     FAIR      61  60  97 CALM      30.04R
BEAVER COUNTY  NOT AVBL
BUTLER*        CLEAR     63  59  88 CALM      30.07S
PITTSBURGH INT PTCLDY    69  65  86 CALM      30.03S
PITTSBURGH     CLEAR     71  68  90 NE3       30.03S FOG
INDIANA*       PTCLDY    64  63  94 E3        30.09R
LATROBE        FOG       64  64 100 CALM      30.06R VSB 3/4
WASHINGTON CO* CLOUDY    66  64  94 CALM      30.04S VSB 1/2
$$

PAZ004>006-010>012-017>019-024>028-033>037-041-042-045-046-049>053-241100-
CENTRAL PENNSYLVANIA

CITY           SKY/WX    TMP DP  RH WIND       PRES   REMARKS
BRADFORD       PTCLDY    57  54  89 CALM      30.09R
DUBOIS         PTCLDY    62  57  83 CALM      30.06R
CLEARFIELD     PTCLDY    59  55  87 CALM      30.07R
JOHNSTOWN      MOCLDY    67  63  87 SW7       30.10R FOG
ALTOONA        CLEAR     63  60  90 CALM      30.07R
STATE COLLEGE  CLEAR     63  57  82 CALM      30.04R
WILLIAMSPORT   CLEAR     64  56  75 NW3       30.01R
SELINSGROVE    CLEAR     60  60 100 CALM      30.01R
FT INDIANTOWN  CLEAR     62  58  86 N2        30.00R
CAPITAL CITY   CLEAR     67  60  78 SW3       29.99R
HARRISBURG     PTCLDY    69  66  90 CALM      29.98R
YORK           CLEAR     63  61  93 CALM      29.99R
$$

PAZ038>040-043-044-047-048-054-055-060>062-067>071-241100-
EASTERN PENNSYLVANIA

CITY           SKY/WX    TMP DP  RH WIND       PRES   REMARKS
SCRANTON       PTCLDY    65  57  75 E3        30.02R
MOUNT POCONO   CLOUDY    64  32  30 NW7       30.05R
ALLENTOWN      PTCLDY    67  60  78 CALM      29.99R
QUAKERTOWN*    MOSUNNY   63  61  94 CALM      30.00R
READING        PTCLDY    68  64  87 CALM      29.98R
LANCASTER      CLEAR     65  65 100 CALM      29.99R FOG
COATESVILLE    SUNNY     70  61  73 CALM      30.01R
POTTSTOWN      CLEAR     67  65  93 CALM      30.00R
BLUE BELL      CLEAR     63  63 100 CALM      29.97R
DOYLESTOWN     PTCLDY    66  61  84 CALM      29.97R
WILLOW GROVE   NOT AVBL
NORTH PHILA    PTCLDY    70  63  78 CALM      29.98R
PHILADELPHIA   MOCLDY    75  64  68 NW3       29.97R
$$




USA.gov is the U.S. government's official web portal to all federal, state and local government web resources and services.